{"data":{"norad_id":64423,"intl_designator":"2025-129M","name":"STARLINK-34467","alt_names":[],"object_type":"PAYLOAD","status":"ACTIVE","operator":null,"country":"US","launch_date":"2025-06-17","launch_site_code":"AFWTR","launch_vehicle":null,"mission":null,"orbit_class":"UNKNOWN","rcs_meters":null,"size_class":null,"mass_kg":null,"dimensions":null,"purposes":["comms"],"wikipedia_slug":null,"has_3d_model":false,"image_url":null,"decayed_at":null,"tle_current":{"epoch":"2026-05-24T23:13:53.751072Z","epoch_age_seconds":73877,"freshness":"FRESH","line1":"1 64423U 25129M   26144.96798323  .00002687  00000+0  23289-3 0  9991","line2":"2 64423  70.0003 242.1059 0003314 269.4965  90.5814 14.98336455 52716","mean_motion":14.98336455,"eccentricity":0.0003314,"inclination_deg":70.0003,"raan_deg":242.1059,"arg_perigee_deg":269.4965,"mean_anomaly_deg":90.5814,"bstar":0.00023289,"rev_number":5271,"period_min":96.106585086058,"perigee_km":569.73264215223,"apogee_km":574.33921676988,"semimajor_km":6950.1729294611,"source":"CELESTRAK","updated_at":"2026-05-25T13:38:20.440927Z"}}}